Вернуться в каталог

STARLINK-36936

АктивенСвязьVLEO
NORAD 68012·PAYLOAD·🇺🇸 United States

Запущен Feb 27, 2026 с Vandenberg Space Force Base

Loading…

Ближайшие Пролёты (ближайшие 24 часа)

TLE

СвежийSource: CelesTrak SupGP

Эпоха: Sep 15, 2026, 03:34 UTC

1 68012C 26039AC  26258.14909722 -.00030053  00000+0 -10883-2 0  2586
2 68012  43.0029  58.6289 0001412 268.4722  52.6287 15.27599042    19

Отслеживайте STARLINK-36936 в реальном времени с AllMySat

Download on the App Store